Find Starlink 5853

NORAD ID: 56881 Int'l Des: 2023-083 Owner: SPXS Country: US Constellation: starlink operational
LEOCIRCULAR

当前视图

正在加载3D地球...

About Starlink 5853

Starlink 5853 (NORAD 56881) is a starlink constellation satellite (v1.5) launched Jun 12, 2023 by SPXS of US. It operates in LEO, CIRCULAR orbit with a mass of 305.00 kg.

即将过境

Passes for default location (London). Set your location on the main map for personalized predictions.

高度历史

Loading altitude history...

两行轨道根数

1 56881U 23083F 26262.87367562 .00001559 00000-0 66169-4 0 9998
2 56881 43.0031 68.9464 0002714 250.7636 109.2923 15.27585578181325
Epoch: Sep 19, 2026 • Age: 25 hours

当前状态

高度 493.1 km
远地点 / 近地点 N/A
速度 7.62 km/s
星下点 -39.74°S, 18.07°W
发射日期 Jun 12, 2023
运行时间 3.2 years
类型 internet

技术详情

分类 Payload
质量 305.00 kg
干质量 290.00 kg
长度 0.20 m
跨度 9.00 m
形状 ? Box + pan
制造商 SPXS
平台类型 Starlink
阶段状态 In Orbit
所有者/国家 SPXS/US

Most Searched